Location: �perlecques
(50.8057°N, 2.1521°E)
Time: 04:07:07
(UTC+00:00)

AO-27 - Visible Passes

Search period start: 21 March 2023 00:00
Search period end: 31 March 2023 00:00
Orbit: 785 x 796 km, 98.9° (Epoch: 20 March)

Date Brightness Start Highest point End Pass type
(mag) Time Alt. Az. Time Alt. Az. Time Alt. Az.
21 Mar 8.1 18:29:56 10° SE 18:34:47 41° ENE 18:39:40 10° N visible
21 Mar 9.2 20:09:37 10° SSW 20:14:20 34° W 20:19:06 10° NNW visible
22 Mar 8.2 19:39:44 10° S 19:44:51 59° WSW 19:50:02 10° NNW visible
23 Mar 7.6 19:10:19 10° SSE 19:15:31 83° ENE 19:20:46 10° NNW visible
23 Mar 10.3 20:52:22 10° SW 20:55:39 17° W 20:58:57 10° NW visible
24 Mar 7.9 18:41:17 10° SE 18:46:17 50° ENE 18:51:20 10° N visible
24 Mar 9.5 20:21:33 10° SSW 20:26:00 28° W 20:30:29 10° NW visible
25 Mar 8.6 19:51:28 10° S 19:56:29 48° W 20:01:32 10° NNW visible
26 Mar 7.8 19:21:52 10° SSE 19:27:04 82° WSW 19:32:21 10° NNW visible
26 Mar 10.4 21:04:52 10° WSW 21:07:23 13° W 21:09:56 10° WNW visible
27 Mar 7.8 18:52:41 10° SSE 18:57:48 61° ENE 19:02:58 10° N visible
27 Mar 9.8 20:33:34 10° SW 20:37:41 23° W 20:41:49 10° NW visible
28 Mar 9.0 20:03:15 10° SSW 20:08:06 39° W 20:13:01 10° NNW visible
29 Mar 8.0 19:33:29 10° S 19:38:39 67° WSW 19:43:54 10° NNW visible
29 Mar 10.6 21:17:59 10° W 21:19:08 11° W 21:20:19 10° WNW visible
30 Mar 7.7 19:04:09 10° SSE 19:09:20 74° ENE 19:14:35 10° NNW visible
30 Mar 10.1 20:45:43 10° SW 20:49:23 19° W 20:53:04 10° NW visible
